Regional Weather Roundup
Issued by NWS

Home | Current Version | Previous Version | Graphics & Text | Print | Product List | Glossary On
Versions: 1 2 3 4 5 6 7 8 9 10 11 12 13 14 15 16 17 18 19 20 21 22 23 24 25 26 27 28 29 30 31 32 33 34 35 36 37 38 39 40 41 42 43 44 45 46 47 48 49 50
296
ASUS43 KLOT 241609
RWRIL

ILLINOIS REGIONAL WEATHER ROUNDUP
NATIONAL WEATHER SERVICE CHICAGO/ROMEOVILLE IL
1100 AM CDT MON JUL 24 2017

NOTE: "FAIR" INDICATES FEW OR NO CLOUDS BELOW 12,000 FEET WITH NO
SIGNIFICANT WEATHER AND/OR OBSTRUCTIONS TO VISIBILITY.

* THESE STATIONS ARE NOT UNDER NWS QUALITY CONTROL. THEY ALSO MAY NOT
  REPORT WEATHER SUCH AS PRECIPITATION OR FOG.

ILZ001-002-007-009-015-016-024-241700-
NORTHWEST ILLINOIS

CITY           SKY/WX    TMP DP  RH WIND       PRES   REMARKS
MOLINE         CLOUDY    70  64  81 E9        30.04R
STERLING*      CLOUDY    71  62  73 NE6       30.06R
SAVANNA*       CLOUDY    73  60  64 E8        30.06S
$$

ILZ003-004-008-010-011-017-018-241700-
NORTH CENTRAL ILLINOIS

CITY           SKY/WX    TMP DP  RH WIND       PRES   REMARKS
ROCKFORD       CLOUDY    72  59  63 E7        30.06R
FREEPORT*      CLOUDY    68  59  72 NE8       30.08R
ROCHELLE*      CLOUDY    69  61  75 NE9       30.06R
DE KALB*       PTSUNNY   71  62  74 NE8       30.06R
PERU*          PTSUNNY  N/A N/A N/A NE10      30.05R
$$

ILZ005-006-012>014-019>023-241700-
NORTHEAST ILLINOIS

CITY           SKY/WX    TMP DP  RH WIND       PRES   REMARKS
CHICAGO-OHARE  CLOUDY    71  57  61 NE15      30.03R
CHICAGO-MIDWAY CLOUDY    71  60  68 N15       30.02R
AURORA         PTSUNNY   71  61  70 NE12      30.04R
LANSING*       CLOUDY    70  57  63 N9        30.02R
JOLIET*        PTSUNNY   74  62  66 NE10      30.02S
WAUKEGAN       CLOUDY    68  58  70 N12G20    30.04R
DUPAGE AIRPORT CLOUDY    72  62  71 NE13      30.03R
WHEELING       CLOUDY    69  60  73 N14       30.05R
MORRIS*        PTSUNNY   74  62  67 NE5       30.02R
ROMEOVILLE*    PTSUNNY   72  59  64 NE13      30.02S
NORTHERLY ISL    N/A     69  59  70 N10         N/A
$$

LMZ740>746-241700-
SOUTHERN LAKE MICHIGAN

STATION/POSITION SKY/WX   TEMP    WIND        PRES    VSBY  WAVE
                          AIR SEA DIR/SP/G                  HT/PER
                          (F)     (DEG/KT/KT) (MB)    (MI)  (FT/S)
SOUTHERN BUOY              66 70   30/ 17/ 19 1016.1          4/ 5
WILMETTE HARBOR            68 72   10/ 16/ 19   N/A           6/ 6
HARRISON CRIB              69      20/ 16/ 17   N/A
BURNHAM HARBOR             69                   N/A
CALUMET HARBOR             70     360/ 12/ 14 1016.1R
BURNS HARBOR               69      20/ 16/ 18 1016.6R
MICHIGAN CITY              68      10/ 18/ 20   N/A
MICHIGAN CITY 6N           69 74   30/ 16/ 19   N/A           6/ 7
ST. JOSEPH                 68 73   40/ 14/ 17 1016.1R         5/ 5
$$

ILZ025>027-034>036-040-047-049-050-058-095>099-241700-
WEST-CENTRAL ILLINOIS

CITY           SKY/WX    TMP DP  RH WIND       PRES   REMARKS
QUINCY         SUNNY     80  61  52 N9        30.00S HX  81
GALESBURG*     CLOUDY    73  65  76 NE6       30.04S
MACOMB*        CLOUDY    72  67  85 NE3       30.04S
JACKSONVILLE*  MOSUNNY   79  65  62 N3        29.99S HX  81
PITTSFIELD*    SUNNY     79  65  61 N6        30.01S HX  81
$$

ILZ028>032-037-038-041>044-048-051>054-059>061-241700-
CENTRAL ILLINOIS

CITY           SKY/WX    TMP DP  RH WIND       PRES   REMARKS
PONTIAC        CLOUDY    72  67  84 N8        30.03S
BLOOMINGTON    CLOUDY    71  65  81 NE8       30.03R
DECATUR        PTSUNNY   77  68  73 NE7       29.99S
PEORIA         CLOUDY    71  65  81 NE7       30.03R
LACON*         CLOUDY    69  64  82 N3        30.03S
LINCOLN*       CLOUDY    74  69  83 N8        30.01R
SPRINGFIELD    MOSUNNY   81  71  71 VRB6      29.99S HX  85
TAYLORVILLE    PTSUNNY   80  69  70 NE5       29.98S HX  82
$$

ILZ033-039-045-046-055>057-062-063-241700-
EAST-CENTRAL ILLINOIS

CITY           SKY/WX    TMP DP  RH WIND       PRES   REMARKS
CHAMPAIGN      CLOUDY    76  67  73 NE7       30.00S
RANTOUL*       CLOUDY    74  67  77 NE9       30.01R
MATTOON        SUNNY     77  71  82 N8        29.98R
PARIS*         SUNNY     77  70  79 NE7       29.99S
$$

ILZ079-100>102-241700-
SOUTHWEST ILLINOIS

CITY           SKY/WX    TMP DP  RH WIND       PRES   REMARKS
ALTON          SUNNY     81  68  65 NE6       29.98S HX  83
BELLEVILLE     SUNNY     83  70  63 NW5       29.97F HX  87
CAHOKIA*       MOSUNNY   85  65  51 N7        29.97S HX  86
SPARTA*        SUNNY     83  70  64 E3        29.98R HX  87
$$

ILZ064>066-069>071-074>076-080>082-084>086-088>090-092>094-241700-
SOUTH-CENTRAL ILLINOIS

CITY           SKY/WX    TMP DP  RH WIND       PRES   REMARKS
CARBONDALE     SUNNY     83  74  74 CALM      29.96R HX  89
CAIRO*         PTSUNNY   83  74  76 CALM      29.95S HX  89
EFFINGHAM*     SUNNY     81  70  69 E5        29.98S HX  84
MARION         MOSUNNY   86  79  79 NE6       29.96R HX  99
MT. VERNON     SUNNY     84  68  58 N3        29.96S HX  87
CENTRALIA*     SUNNY     83  69  63 CALM      29.96R HX  86
SALEM*         SUNNY     83  68  59 N5        29.96S HX  86
METROPOLIS*    PTSUNNY   83  74  74 CALM      29.96S HX  90
$$

ILZ067-068-072-073-078-083-087-091-241700-
SOUTHEAST ILLINOIS

CITY           SKY/WX    TMP DP  RH WIND       PRES   REMARKS
LAWRENCEVILLE  SUNNY     82  71  69 CALM      29.96R HX  86
FLORA*         SUNNY     84  70  62 NE5       29.97R HX  88
FAIRFIELD*     SUNNY     83  67  59 CALM      29.95R HX  86
HARRISBURG*    SUNNY     86  74  68 CALM      29.95S HX  94
ROBINSON*      MOSUNNY   79  71  78 N5        29.97R HX  81
CARMI*         SUNNY     83  76  79 CALM      29.94S HX  92
$$

ABBREVIATIONS USED IN REMARKS
   TC - TEMPERATURE IN CELSIUS
  WCI - WIND CHILL INDEX
   HX - HEAT INDEX
  VSB - VISIBILITY
$$





USA.gov is the U.S. government's official web portal to all federal, state and local government web resources and services.